Weather History for KLCI - October, 2011

Change the Weather History Date:

Sunday, October 16, 2011

  Actual Average Record
Temperature  
Mean Temperature 54 °F -  
Max Temperature 59 °F 59 °F 71 °F (2014)
Min Temperature 50 °F 39 °F 32 °F (2006)
Degree Days  
Heating Degree Days 10    
Growing Degree Days 4 (Base 50)    
Moisture  
Dew Point 37 °F    
Average Humidity 54    
Maximum Humidity 76    
Minimum Humidity 41    
Precipitation  
Precipitation 0.00 in - - ()
Sea Level Pressure  
Sea Level Pressure 29.65 in    
Wind  
Wind Speed 16 mph (WSW)    
Max Wind Speed 23 mph    
Max Gust Speed 32 mph    
Visibility 10 miles    
Events      
Averages and records for this station are not official NWS values.
T = Trace of Precipitation, MM = Missing Value Source: NWS Daily Summary

Daily Weather History Graph

Daily Weather History Graph

Search for Another Location

Airport or City:

Trip Planner

Search our weather history database for the weather conditions in past years. The results will help you decide how hot, cold, wet, or windy it might be!

Date:

Astronomy

Oct. 16, 2011 Rise Set
Actual Time 7:00 AM EDT 6:01 PM EDT
Civil Twilight 6:31 AM EDT 6:30 PM EDT
Nautical Twilight 5:58 AM EDT 7:03 PM EDT
Astronomical Twilight 5:25 AM EDT 7:36 PM EDT
Moon 8:36 PM EDT (10/16) 11:23 AM EDT (10/16)
Length of Visible Light 11h 58m
Length of Day
11h 00m
Waning Gibbous, 82% of the Moon is Illuminated
Oct 16
Waning Gibbous
Oct 19
Last Quarter
Oct 26
New
Nov 2
First Quarter
Nov 10
Full

Hourly Weather History & Observations

Time (EDT) Temp. Dew Point Humidity Pressure Visibility Wind Dir Wind Speed Gust Speed Precip Events Conditions
12:15 AM 51.8 °F 41.0 °F 67% 29.58 in 10.0 mi SW 23.0 mph 29.9 mph N/A   Mostly Cloudy
12:35 AM 50.0 °F 41.0 °F 71% 29.57 in 10.0 mi SW 18.4 mph 25.3 mph N/A   Partly Cloudy
12:55 AM 50.0 °F 42.8 °F 76% 29.57 in 10.0 mi SW 16.1 mph 21.9 mph N/A   Clear
1:15 AM 51.8 °F 41.0 °F 67% 29.57 in 10.0 mi SW 17.3 mph 25.3 mph N/A   Partly Cloudy
1:35 AM 51.8 °F 39.2 °F 62% 29.58 in 10.0 mi SW 19.6 mph 24.2 mph N/A   Partly Cloudy
1:55 AM 51.8 °F 39.2 °F 62% 29.58 in 10.0 mi SW 17.3 mph 32.2 mph N/A   Partly Cloudy
2:15 AM 51.8 °F 37.4 °F 58% 29.58 in 10.0 mi SW 19.6 mph 27.6 mph N/A   Clear
2:35 AM 51.8 °F 37.4 °F 58% 29.59 in 10.0 mi SW 15.0 mph 21.9 mph N/A   Clear
2:55 AM 51.8 °F 37.4 °F 58% 29.59 in 10.0 mi SW 19.6 mph 28.8 mph N/A   Partly Cloudy
3:15 AM 51.8 °F 37.4 °F 58% 29.59 in 10.0 mi SW 15.0 mph 25.3 mph N/A   Scattered Clouds
3:35 AM 51.8 °F 37.4 °F 58% 29.59 in 10.0 mi SW 18.4 mph 23.0 mph N/A   Mostly Cloudy
3:55 AM 51.8 °F 37.4 °F 58% 29.59 in 10.0 mi SW 19.6 mph 25.3 mph N/A   Overcast
4:15 AM 51.8 °F 37.4 °F 58% 29.59 in 10.0 mi SW 20.7 mph 25.3 mph N/A   Overcast
4:55 AM 51.8 °F 37.4 °F 58% 29.61 in 10.0 mi SW 13.8 mph 18.4 mph N/A   Overcast
5:15 AM 51.8 °F 37.4 °F 58% 29.61 in 10.0 mi SW 16.1 mph 20.7 mph N/A   Overcast
5:35 AM 51.8 °F 37.4 °F 58% 29.62 in 10.0 mi WSW 18.4 mph 25.3 mph N/A   Overcast
5:55 AM 51.8 °F 37.4 °F 58% 29.62 in 10.0 mi SW 12.7 mph 23.0 mph N/A   Mostly Cloudy
6:15 AM 51.8 °F 37.4 °F 58% 29.64 in 10.0 mi WSW 11.5 mph - N/A   Scattered Clouds
6:35 AM 51.8 °F 37.4 °F 58% 29.64 in 10.0 mi WSW 13.8 mph 19.6 mph N/A   Mostly Cloudy
6:55 AM 51.8 °F 37.4 °F 58% 29.64 in 10.0 mi WSW 13.8 mph 20.7 mph N/A   Mostly Cloudy
7:15 AM 51.8 °F 37.4 °F 58% 29.65 in 10.0 mi West 12.7 mph 18.4 mph N/A   Overcast
7:35 AM 51.8 °F 37.4 °F 58% 29.65 in 10.0 mi WSW 13.8 mph - N/A   Mostly Cloudy
7:55 AM 51.8 °F 37.4 °F 58% 29.66 in 10.0 mi WSW 11.5 mph - N/A   Mostly Cloudy
8:15 AM 51.8 °F 37.4 °F 58% 29.66 in 10.0 mi WSW 9.2 mph - N/A   Overcast
8:35 AM 51.8 °F 37.4 °F 58% 29.67 in 10.0 mi WSW 12.7 mph - N/A   Overcast
8:55 AM 51.8 °F 37.4 °F 58% 29.68 in 10.0 mi WSW 12.7 mph 20.7 mph N/A   Overcast
9:15 AM 51.8 °F 37.4 °F 58% 29.69 in 10.0 mi West 9.2 mph - N/A   Overcast
9:35 AM 51.8 °F 37.4 °F 58% 29.70 in 10.0 mi WSW 6.9 mph - N/A   Mostly Cloudy
9:55 AM 53.6 °F 39.2 °F 58% 29.70 in 10.0 mi WSW 11.5 mph - N/A   Mostly Cloudy
10:15 AM 53.6 °F 37.4 °F 54% 29.70 in 10.0 mi West 8.1 mph - N/A   Overcast
10:35 AM 53.6 °F 37.4 °F 54% 29.69 in 10.0 mi SW 16.1 mph 20.7 mph N/A   Overcast
10:55 AM 55.4 °F 35.6 °F 47% 29.69 in 10.0 mi WSW 19.6 mph 25.3 mph N/A   Overcast
11:15 AM 55.4 °F 35.6 °F 47% 29.70 in 10.0 mi WSW 13.8 mph 21.9 mph N/A   Overcast
11:35 AM 55.4 °F 35.6 °F 47% 29.70 in 10.0 mi WSW 13.8 mph 24.2 mph N/A   Overcast
11:55 AM 55.4 °F 35.6 °F 47% 29.70 in 10.0 mi WSW 10.4 mph 27.6 mph N/A   Overcast
12:15 PM 55.4 °F 35.6 °F 47% 29.70 in 10.0 mi WSW 19.6 mph 27.6 mph N/A   Overcast
12:35 PM 55.4 °F 35.6 °F 47% 29.70 in 10.0 mi WSW 17.3 mph 29.9 mph N/A   Overcast
12:55 PM 55.4 °F 35.6 °F 47% 29.69 in 10.0 mi WSW 11.5 mph 17.3 mph N/A   Overcast
1:15 PM 55.4 °F 35.6 °F 47% 29.68 in 10.0 mi WSW 18.4 mph 26.5 mph N/A   Overcast
1:35 PM 55.4 °F 35.6 °F 47% 29.69 in 10.0 mi West 15.0 mph 23.0 mph N/A   Overcast
1:55 PM 55.4 °F 35.6 °F 47% 29.68 in 10.0 mi WSW 20.7 mph 26.5 mph N/A   Overcast
2:15 PM 55.4 °F 35.6 °F 47% 29.68 in 10.0 mi WSW 11.5 mph 23.0 mph N/A   Mostly Cloudy
2:35 PM 55.4 °F 35.6 °F 47% 29.68 in 10.0 mi WSW 5.8 mph - N/A   Overcast
2:55 PM 57.2 °F 37.4 °F 48% 29.67 in 10.0 mi WSW 18.4 mph 23.0 mph N/A   Overcast
3:15 PM 57.2 °F 35.6 °F 44% 29.68 in 10.0 mi WSW 15.0 mph 21.9 mph N/A   Overcast
3:35 PM 57.2 °F 35.6 °F 44% 29.68 in 10.0 mi West 11.5 mph 17.3 mph N/A   Overcast
3:55 PM 59.0 °F 37.4 °F 45% 29.66 in 10.0 mi WSW 19.6 mph 25.3 mph N/A   Mostly Cloudy
4:15 PM 57.2 °F 33.8 °F 41% 29.65 in 10.0 mi WSW 13.8 mph - N/A   Mostly Cloudy
4:35 PM 57.2 °F 35.6 °F 44% 29.65 in 10.0 mi WSW 12.7 mph - N/A   Overcast
4:55 PM 57.2 °F 33.8 °F 41% 29.64 in 10.0 mi SW 12.7 mph 18.4 mph N/A   Overcast
5:15 PM 57.2 °F 33.8 °F 41% 29.64 in 10.0 mi SW 11.5 mph - N/A   Overcast
5:35 PM 57.2 °F 33.8 °F 41% 29.64 in 10.0 mi SW 12.7 mph 18.4 mph N/A   Overcast
5:55 PM 55.4 °F 35.6 °F 47% 29.64 in 10.0 mi WSW 10.4 mph - N/A   Overcast
6:15 PM 55.4 °F 35.6 °F 47% 29.63 in 10.0 mi Calm Calm - N/A   Overcast
6:35 PM 53.6 °F 37.4 °F 54% 29.64 in 10.0 mi South 3.5 mph - N/A   Scattered Clouds
6:55 PM 50.0 °F 39.2 °F 66% 29.64 in 10.0 mi Calm Calm - N/A   Partly Cloudy
7:15 PM 50.0 °F 39.2 °F 66% 29.65 in 10.0 mi Calm Calm - N/A   Mostly Cloudy
7:35 PM 50.0 °F 39.2 °F 66% 29.64 in 10.0 mi Calm Calm - N/A   Mostly Cloudy
7:55 PM 48.2 °F 39.2 °F 71% 29.63 in 10.0 mi Calm Calm - N/A   Mostly Cloudy
8:15 PM 50.0 °F 39.2 °F 66% 29.63 in 10.0 mi SSW 9.2 mph - N/A   Mostly Cloudy
8:35 PM 53.6 °F 37.4 °F 54% 29.63 in 10.0 mi SSW 8.1 mph - N/A   Overcast
8:55 PM 53.6 °F 39.2 °F 58% 29.63 in 10.0 mi SW 5.8 mph - N/A   Overcast
9:15 PM 53.6 °F 39.2 °F 58% 29.63 in 10.0 mi SSW 10.4 mph - N/A   Overcast
9:35 PM 55.4 °F 39.2 °F 54% 29.64 in 10.0 mi SW 10.4 mph - N/A   Overcast
9:55 PM 55.4 °F 39.2 °F 54% 29.64 in 10.0 mi SSW 9.2 mph - N/A   Overcast
10:15 PM 53.6 °F 39.2 °F 58% 29.64 in 10.0 mi SSW 5.8 mph - N/A   Overcast
10:35 PM 53.6 °F 39.2 °F 58% 29.62 in 10.0 mi SSW 3.5 mph - N/A   Overcast
10:55 PM 53.6 °F 39.2 °F 58% 29.62 in 10.0 mi South 4.6 mph - N/A   Overcast
11:15 PM 53.6 °F 41.0 °F 62% 29.62 in 10.0 mi South 8.1 mph - N/A   Overcast
11:35 PM 53.6 °F 41.0 °F 62% 29.60 in 10.0 mi South 5.8 mph - N/A   Overcast
11:55 PM 53.6 °F 42.8 °F 67% 29.59 in 10.0 mi South 6.9 mph - N/A   Overcast